CAPE
0 0 0 0 0 0 0 0 0 0 0 0 0 0 7 3 0 2 253 463 805 1570 1807 1320 406 78 237 621 406 359 436 703 806 686 453 139 6 119 150 260 455 635 734 530 249 58 0 0 0
0 0 0 0 0 0 0 0 0 0 0 0 0 0 0 0 185 373 255 962 1172 1715 1843 1448 557 93 68 178 241 423 531 722 732 618 351 99 0 24 181 184 394 643 579 420 281 67 0 0 0
0 0 0 0 0 0 0 0 0 0 0 0 0 0 0 6 0 899 878 1106 1374 1721 1797 1574 710 120 24 16 79 361 586 630 682 621 335 101 14 55 164 278 506 593 556 411 190 5 0 0 0
0 0 0 0 0 0 0 0 0 0 0 0 0 0 0 0 0 888 1291 1483 1491 1637 1660 1629 795 214 20 0 19 96 276 528 630 509 278 152 48 39 214 417 525 605 574 548 250 0 0 0 0
0 0 0 0 0 0 0 0 0 0 0 0 0 0 0 0 157 1326 1577 1600 1389 1477 1514 1702 906 307 38 0 1 23 96 267 362 353 299 204 55 94 354 439 611 691 654 596 176 0 0 0 0
0 0 0 0 0 0 0 0 0 0 0 0 0 0 0 5 269 1195 1498 1613 1578 1435 1590 1697 1140 471 90 22 0 0 11 137 305 319 293 193 71 124 295 473 713 783 702 451 2 0 0 0 0
0 0 0 0 0 0 0 0 0 0 0 0 0 0 0 0 555 1089 1446 1705 1545 1437 1656 1595 1179 805 325 134 4 0 4 84 209 226 231 186 94 188 321 508 627 700 594 30 0 0 0 0 0
0 0 0 0 0 0 0 0 0 0 0 0 0 0 0 0 434 1196 1319 1520 1596 1420 1374 1377 1295 912 618 526 120 8 30 71 84 93 206 148 129 300 507 565 570 648 101 0 0 0 0 0 0
0 0 0 0 0 0 0 0 0 0 0 0 0 0 0 0 133 879 1240 1352 1430 1284 1248 1209 1203 1101 717 576 503 220 81 27 14 147 298 170 1 240 545 397 530 260 0 0 0 0 0 0 0
0 0 0 0 0 0 0 0 0 0 0 0 0 0 0 0 0 0 365 880 1303 1154 1049 1116 1134 957 774 547 542 334 315 241 208 390 449 116 295 570 551 529 338 57 0 0 0 0 0 0 0
0 0 0 0 0 0 0 0 0 0 0 0 0 0 0 0 0 0 0 216 869 1311 1201 1081 1166 1072 868 519 632 458 318 408 490 539 525 365 542 750 529 311 97 22 0 0 0 0 0 0 0
0 0 0 0 0 0 0 0 0 0 0 0 0 0 0 0 0 0 0 0 8 1104 1310 1281 1118 1070 1015 744 678 488 321 366 375 486 554 486 560 706 489 245 119 158 0 0 0 0 0 0 0
0 0 0 0 0 0 0 0 0 0 0 0 0 0 0 0 0 0 0 0 0 0 1246 1410 1350 1189 1166 1059 812 633 493 309 189 313 501 342 361 394 553 337 154 63 4 0 0 0 0 0 0
0 0 0 0 0 0 0 0 0 0 0 0 0 0 0 0 0 0 0 0 0 0 0 1174 1437 1387 1436 1106 994 835 691 458 375 285 356 497 213 95 263 335 188 95 25 0 0 0 0 0 0
0 0 0 0 0 0 0 0 0 0 0 0 0 0 0 0 0 0 0 0 0 0 0 0 616 1678 1504 1389 1238 1018 762 503 359 216 359 348 246 154 251 188 102 65 43 18 0 0 0 0 47
0 0 0 0 0 0 0 0 0 0 0 0 0 0 0 0 0 0 0 0 0 0 0 0 61 1311 1604 1527 1406 1157 969 690 484 270 288 306 200 103 175 148 76 50 56 28 0 0 1 101 268
0 0 0 0 0 0 0 0 0 0 0 0 0 0 0 0 0 0 0 0 0 0 0 0 31 947 1352 1650 1581 1305 1126 842 649 473 352 322 105 141 58 94 77 123 60 104 15 0 4 139 422
0 0 0 0 0 0 0 0 0 0 0 0 0 0 0 0 0 0 0 0 0 0 0 0 0 227 1624 1635 1567 1371 1226 1097 923 597 382 319 240 127 56 17 36 71 45 114 94 9 51 239 521
0 0 0 0 0 0 0 0 0 0 0 0 0 0 0 0 0 0 0 0 0 0 0 0 0 0 1113 1424 1215 1056 1059 1007 839 628 550 409 271 184 83 10 5 37 25 119 159 53 175 156 100
0 0 0 0 0 0 0 0 0 0 0 0 0 0 0 0 0 0 0 0 0 0 0 0 0 0 46 995 1154 993 922 751 733 603 557 421 257 240 166 29 8 27 133 328 221 215 183 193 62
0 0 0 0 0 0 0 0 0 0 0 0 0 0 0 0 0 0 0 0 0 0 0 0 0 0 109 586 1174 821 653 644 502 408 456 424 320 285 192 85 7 1 122 445 684 611 279 230 100
0 0 0 0 0 0 0 0 0 0 0 0 0 0 0 0 0 0 0 0 0 0 0 0 0 0 225 924 913 803 615 547 426 541 522 554 338 257 228 203 114 24 52 357 790 826 620 426 354
0 0 0 0 0 0 0 0 0 0 0 0 0 0 0 0 0 0 0 0 0 0 0 0 0 0 310 811 999 887 861 754 703 526 506 500 376 159 130 136 125 29 236 373 628 704 669 297 263
0 0 0 0 0 0 0 0 0 0 0 0 0 0 0 0 0 0 0 0 0 0 0 0 0 0 152 916 1188 1135 955 1039 923 790 640 470 376 253 93 78 99 181 301 528 680 758 744 224 30
0 0 0 0 0 0 0 0 0 0 0 0 0 0 0 0 0 0 0 0 0 0 0 0 0 0 480 1187 1336 1349 1304 1253 1054 936 704 589 493 350 215 166 178 169 293 519 639 627 467 135 28
0 0 0 0 0 0 0 0 0 0 0 0 0 0 0 0 0 0 0 0 0 0 0 0 0 0 0 611 1358 1446 1633 1573 1345 1190 1041 738 669 622 570 298 269 250 193 522 413 100 51 11 0
0 0 0 0 0 1 0 0 0 0 0 0 0 0 0 0 0 0 0 0 0 0 0 0 0 0 0 0 447 1452 1416 1689 1673 1516 1331 1176 1125 1105 718 575 339 275 125 59 36 20 1 0 0
0 0 0 0 0 0 0 0 0 0 0 2 3 0 0 0 0 0 0 0 0 0 0 0 0 0 0 0 0 242 1342 1525 1877 1862 1686 1400 1061 898 967 1023 620 228 37 0 0 0 0 0 0
0 0 0 0 0 2 1 0 0 0 1 0 0 0 0 0 0 0 0 0 0 0 0 0 0 0 0 0 17 12 219 1397 2018 1916 1849 1829 1234 772 888 900 450 79 0 1 5 0 0 0 0
0 0 1 1 0 0 6 0 0 0 0 0 0 0 0 0 0 0 0 0 0 0 0 0 0 0 0 0 0 155 222 754 1755 1901 1904 1933 1440 980 986 508 102 5 5 6 1 0 0 0 0
CIN
0 0 0 0 0 0 0 0 0 0 0 0 0 0 -151 -36 0 -68 -445 -499 -500 -431 -378 -448 -654 -808 -696 -528 -545 -514 -452 -340 -302 -323 -375 -489 -590 -459 -410 -343 -257 -182 -137 -176 -266 -419 0 0 0
0 0 0 0 0 0 0 0 0 0 0 0 0 0 0 0 -154 -293 -397 -432 -471 -426 -388 -425 -602 -779 -789 -703 -626 -509 -450 -342 -321 -357 -434 -536 0 -547 -401 -367 -266 -180 -182 -212 -236 -391 0 0 0
0 0 0 0 0 0 0 0 0 0 0 0 0 0 0 -11 0 -296 -393 -437 -400 -378 -388 -397 -576 -742 -817 -834 -740 -562 -450 -393 -334 -345 -446 -555 -600 -523 -416 -332 -238 -207 -204 -223 -289 -182 0 0 0
0 0 0 0 0 0 0 0 0 0 0 0 0 0 0 0 0 -433 -407 -407 -388 -339 -318 -360 -531 -661 -782 -1 -808 -709 -583 -438 -367 -367 -449 -514 -555 -512 -401 -296 -243 -215 -211 -214 -280 -2 0 0 0
0 0 0 0 0 0 0 0 0 0 0 0 0 0 0 0 -520 -360 -347 -356 -380 -356 -316 -270 -455 -602 -744 0 -201 -790 -699 -578 -483 -455 -449 -489 -565 -496 -348 -306 -231 -190 -193 -197 -329 0 0 0 0
0 0 0 0 0 0 0 0 0 0 0 0 0 0 0 -197 -406 -326 -312 -305 -316 -337 -282 -249 -362 -534 -662 -730 0 0 -716 -657 -537 -506 -481 -505 -548 -470 -365 -285 -201 -168 -174 -240 -94 0 0 0 0
0 0 0 0 0 0 0 0 0 0 0 0 0 0 0 0 -356 -323 -305 -254 -282 -295 -263 -260 -323 -415 -546 -633 -492 0 -700 -655 -596 -563 -536 -536 -534 -431 -352 -264 -209 -170 -180 -312 0 0 0 0 0
0 0 0 0 0 0 0 0 0 0 0 0 0 0 0 0 -347 -264 -281 -256 -224 -259 -265 -275 -297 -356 -441 -465 -627 -702 -627 -606 -582 -576 -509 -530 -505 -384 -286 -234 -212 -176 -323 0 0 0 0 0 0
0 0 0 0 0 0 0 0 0 0 0 0 0 0 0 0 -255 -221 -215 -240 -207 -264 -259 -273 -299 -317 -381 -404 -441 -557 -579 -593 -618 -526 -444 -467 -75 -354 -250 -271 -228 -288 0 0 0 0 0 0 0
0 0 0 0 0 0 0 0 0 0 0 0 0 0 0 0 0 0 -263 -199 -183 -240 -278 -241 -269 -328 -345 -387 -391 -470 -473 -474 -464 -400 -414 -496 -381 -270 -251 -244 -302 -394 0 0 0 0 0 0 0
0 0 0 0 0 0 0 0 0 0 0 0 0 0 0 0 0 0 0 -227 -150 -135 -203 -226 -213 -255 -305 -378 -341 -399 -441 -405 -371 -357 -373 -434 -372 -297 -326 -336 -418 -373 0 0 0 0 0 0 0
0 0 0 0 0 0 0 0 0 0 0 0 0 0 0 0 0 0 0 0 -56 -92 -127 -172 -215 -216 -236 -287 -316 -376 -430 -388 -389 -373 -337 -367 -356 -327 -366 -406 -421 -369 0 0 0 0 0 0 0
0 0 0 0 0 0 0 0 0 0 0 0 0 0 0 0 0 0 0 0 0 0 -65 -78 -83 -167 -188 -187 -250 -309 -374 -438 -441 -357 -293 -381 -383 -390 -330 -364 -409 -441 -180 0 0 0 0 0 0
0 0 0 0 0 0 0 0 0 0 0 0 0 0 0 0 0 0 0 0 0 0 0 -50 -69 -94 -96 -172 -215 -262 -301 -368 -391 -390 -331 -265 -379 -442 -412 -349 -380 -427 -494 0 0 0 0 0 0
0 0 0 0 0 0 0 0 0 0 0 0 0 0 0 0 0 0 0 0 0 0 0 0 -168 -55 -61 -104 -142 -202 -265 -330 -382 -429 -372 -334 -335 -365 -330 -356 -408 -427 -455 -491 0 0 0 0 -224
0 0 0 0 0 0 0 0 0 0 0 0 0 0 0 0 0 0 0 0 0 0 0 0 -53 -89 -73 -74 -101 -123 -186 -292 -332 -384 -372 -366 -385 -402 -327 -343 -397 -409 -415 -467 0 0 -45 -227 -110
0 0 0 0 0 0 0 0 0 0 0 0 0 0 0 0 0 0 0 0 0 0 0 0 -77 -105 -113 -91 -100 -117 -132 -192 -241 -266 -320 -353 -455 -408 -448 -406 -413 -388 -388 -349 -304 0 -224 -183 -58
0 0 0 0 0 0 0 0 0 0 0 0 0 0 0 0 0 0 0 0 0 0 0 0 0 -242 -37 -36 -47 -74 -105 -126 -169 -216 -285 -306 -357 -427 -475 -480 -423 -398 -424 -346 -371 -428 -311 -128 -38
0 0 0 0 0 0 0 0 0 0 0 0 0 0 0 0 0 0 0 0 0 0 0 0 0 0 -69 -21 -62 -99 -131 -197 -239 -272 -250 -287 -368 -398 -491 -535 -451 -430 -467 -323 -282 -336 -194 -184 -184
0 0 0 0 0 0 0 0 0 0 0 0 0 0 0 0 0 0 0 0 0 0 0 0 0 0 -299 -57 -69 -99 -123 -156 -197 -245 -207 -288 -373 -367 -380 -486 -484 -429 -344 -196 -223 -187 -158 -123 -231
0 0 0 0 0 0 0 0 0 0 0 0 0 0 0 0 0 0 0 0 0 0 0 0 0 0 -258 -119 -32 -63 -95 -69 -138 -242 -227 -278 -326 -362 -343 -402 -463 -282 -319 -139 -43 -47 -102 -66 -191
0 0 0 0 0 0 0 0 0 0 0 0 0 0 0 0 0 0 0 0 0 0 0 0 0 0 -160 -88 -57 -65 -121 -122 -218 -230 -235 -238 -250 -316 -346 -352 -368 -376 -297 -141 -45 -37 -41 -39 -37
0 0 0 0 0 0 0 0 0 0 0 0 0 0 0 0 0 0 0 0 0 0 0 0 0 0 -147 -112 -75 -68 -48 -68 -103 -123 -147 -156 -206 -311 -369 -367 -317 -333 -178 -151 -86 -52 -55 -71 -67
0 0 0 0 0 0 0 0 0 0 0 0 0 0 0 0 0 0 0 0 0 0 0 0 0 0 -185 -116 -69 -66 -78 -42 -37 -72 -110 -136 -200 -235 -336 -386 -343 -218 -156 -104 -38 -72 -56 -97 -181
0 0 0 0 0 0 0 0 0 0 0 0 0 0 0 0 0 0 0 0 0 0 0 0 0 0 -185 -100 -77 -63 -65 -45 -48 -60 -86 -94 -168 -202 -298 -375 -333 -250 -182 -95 -72 -55 -74 -131 -175
0 0 0 0 0 0 0 0 0 0 0 0 0 0 0 0 0 0 0 0 0 0 0 0 0 0 0 -166 -76 -86 -50 -28 -39 -24 -45 -66 -99 -134 -172 -271 -233 -178 -164 -87 -127 -121 -176 -313 0
0 0 0 -1 -2 -1 0 0 0 0 0 0 0 0 0 0 0 0 0 0 0 0 0 0 0 0 0 0 -217 -50 -69 -41 -30 -23 -29 -29 -20 -68 -143 -136 -174 -169 -145 -169 -230 -205 -194 0 0
0 0 0 0 0 0 0 0 0 0 0 -24 -31 0 0 0 0 0 0 0 0 0 0 0 0 0 0 -11 0 -287 -67 -60 -43 -10 -2 -12 -33 -107 -82 -64 -89 -142 -277 0 0 0 0 0 0
0 0 0 0 0 -1 -1 0 0 0 -3 0 0 0 0 0 0 0 0 0 0 0 0 0 0 0 0 0 -393 -404 -289 -63 -12 -15 -20 0 -9 -57 -2 -41 -78 -207 0 0 0 0 0 0 0
0 0 -1 0 0 0 0 0 0 0 0 0 0 0 0 0 0 0 0 0 0 0 0 0 0 0 0 0 -7 -342 -319 -196 -20 -12 -22 -14 0 -1 -3 -44 -176 -17 0 0 0 0 0 0 0
Wind_Speed
22 21 19 19 19 17 16 14 13 16 20 21 24 19 19 18 17 17 23 9 18 22 24 24 24 23 22 22 21 22 22 22 22 22 23 24 25 25 26 25 24 24 23 23 23 23 23 22 22
21 19 19 20 20 21 19 15 16 15 20 24 20 19 20 18 18 22 21 14 16 20 22 22 22 21 21 20 19 20 21 21 21 22 23 24 24 24 24 24 23 22 22 22 22 22 22 22 22
19 19 20 21 21 21 21 17 16 18 18 21 18 17 18 21 24 22 22 12 5 16 20 20 21 20 19 18 18 18 19 21 21 21 21 21 22 22 23 22 22 21 20 20 20 20 21 21 21
19 18 19 22 25 21 18 16 21 22 18 19 20 14 17 20 26 25 21 9 4 5 12 15 19 19 18 18 18 18 18 19 20 20 19 18 19 21 20 20 20 19 19 19 18 19 19 19 19
19 20 24 25 26 24 22 22 22 23 22 22 21 22 19 22 25 22 17 9 3 2 4 7 7 8 10 15 17 19 18 17 18 18 17 17 18 18 18 18 18 17 17 16 16 17 17 18 18
20 20 25 28 25 24 23 22 21 23 24 24 23 26 17 21 24 22 16 11 5 0 0 2 5 3 4 6 9 13 16 17 17 17 16 15 15 15 16 15 15 14 15 15 15 15 15 16 16
22 23 28 26 25 24 20 21 20 24 27 24 27 28 22 26 24 20 16 12 7 2 2 3 6 7 5 3 5 8 11 14 15 15 15 13 12 12 13 12 12 11 12 12 13 13 13 14 14
20 21 23 25 26 26 21 22 23 25 25 29 25 24 27 29 24 20 17 13 10 7 7 4 8 9 9 7 4 5 8 10 10 11 12 11 10 11 11 11 10 9 10 11 11 11 12 12 12
19 23 26 25 25 24 23 28 24 26 27 24 26 29 28 28 24 23 19 15 12 11 10 9 9 11 12 12 8 5 5 5 9 10 8 7 8 9 9 10 9 9 9 9 10 10 10 11 11
21 25 24 23 26 30 32 31 32 30 30 29 30 28 29 30 27 26 24 20 15 13 14 14 13 12 13 14 14 11 8 8 5 8 9 8 8 9 9 8 7 7 7 7 8 9 9 9 10
22 26 23 24 28 30 32 34 30 32 33 32 33 35 33 33 30 29 28 25 22 18 15 18 17 17 16 16 15 17 17 14 13 6 8 7 9 8 8 5 6 7 6 6 6 7 7 8 9
25 24 24 27 31 32 36 35 36 36 36 32 36 36 35 35 33 32 31 29 26 23 21 18 19 20 19 18 18 17 18 19 18 16 10 8 6 5 4 3 3 3 3 4 5 6 7 7 8
23 25 27 31 34 34 34 38 40 38 37 36 35 34 34 34 33 32 31 30 28 27 24 23 21 22 22 21 21 20 20 20 20 21 20 18 14 11 9 6 2 0 1 3 4 5 6 6 7
24 29 33 33 33 30 34 34 32 32 30 33 34 32 35 35 34 34 34 34 33 31 30 26 23 22 23 25 22 23 22 22 22 20 21 20 19 17 14 12 8 5 4 3 4 4 5 6 7
27 33 31 24 30 32 32 39 36 34 36 38 35 39 38 37 36 37 36 36 36 36 34 32 28 25 24 25 26 25 24 23 23 24 22 23 20 20 19 15 12 10 8 6 6 6 6 7 8
29 27 35 29 34 33 35 50 36 33 40 43 42 43 41 41 40 39 38 37 37 38 37 36 32 29 27 26 27 29 28 24 24 24 24 22 24 23 20 18 17 15 13 10 8 8 8 8 8
27 38 40 37 34 35 39 53 44 42 46 44 45 45 45 46 44 41 40 42 40 38 38 37 34 32 30 28 27 29 29 30 27 26 26 26 25 24 22 21 18 16 16 15 11 9 10 10 10
39 41 39 43 39 44 49 56 48 44 45 47 47 47 48 47 47 44 43 43 43 40 37 35 34 35 33 31 30 29 30 31 31 29 27 25 26 25 24 24 22 18 18 16 14 12 11 12 11
34 38 43 42 42 44 47 55 53 44 43 44 45 44 45 46 44 43 42 40 41 42 39 35 34 34 34 33 32 32 33 32 34 33 30 27 25 25 24 23 22 20 19 18 16 13 11 12 9
32 39 43 40 37 42 45 55 49 42 39 39 38 36 37 39 40 40 41 41 40 41 40 39 34 32 34 34 35 35 36 36 38 36 36 32 28 26 25 24 24 23 20 20 17 15 14 14 9
32 37 41 43 39 35 38 49 40 36 37 30 30 29 31 34 36 35 36 37 38 40 42 40 39 35 32 35 37 35 34 36 36 37 38 35 30 27 26 24 24 23 22 21 19 17 17 15 12
39 31 31 35 39 37 35 49 43 36 28 25 24 22 28 26 28 29 30 30 32 34 36 40 39 37 34 31 32 36 38 40 38 37 39 37 32 30 28 26 25 24 23 24 24 22 19 17 16
29 29 33 37 41 44 33 30 32 36 38 35 29 26 19 24 25 25 24 24 23 26 29 34 37 37 35 34 34 35 39 38 36 37 36 38 36 33 30 28 26 26 25 24 25 25 21 20 19
26 34 43 36 29 30 29 19 31 34 33 31 30 24 28 28 24 22 23 22 22 24 26 27 31 37 34 34 34 36 36 37 36 36 35 36 36 35 35 32 27 27 24 21 22 25 22 22 22
27 37 35 28 28 30 28 34 28 36 38 37 37 36 34 31 26 24 25 24 25 25 26 26 27 32 34 35 35 36 38 36 37 38 35 33 34 35 35 31 28 27 25 24 23 23 22 24 23
31 25 28 34 36 48 40 28 27 29 32 33 35 33 26 26 26 25 26 26 27 28 28 28 28 31 32 36 36 35 37 37 38 38 37 36 33 32 30 28 27 26 24 23 20 24 23 22 22
22 23 23 31 29 35 25 27 29 25 32 31 29 27 28 29 28 29 30 29 28 29 30 31 32 31 32 34 38 37 37 38 38 37 37 36 36 30 26 26 25 24 26 24 20 22 21 19 18
14 22 26 24 33 40 32 38 36 33 34 31 34 36 37 37 37 36 34 35 34 33 33 33 34 35 34 34 35 37 38 39 39 37 36 37 36 31 27 26 24 23 21 22 19 16 15 15 15
20 22 19 23 22 32 44 34 32 37 40 39 38 41 44 45 46 43 43 41 40 38 38 36 36 37 38 37 36 35 37 37 40 38 38 37 37 34 45 27 24 23 22 20 20 16 14 12 10
13 19 17 23 27 23 36 33 29 27 31 36 43 49 52 50 50 49 49 47 44 43 41 40 39 39 40 40 38 36 38 39 37 39 38 36 38 36 32 29 26 22 21 19 17 15 16 10 10
Wind_Direction
289 291 294 287 285 288 291 302 305 318 302 313 296 291 285 302 316 306 306 9 119 127 131 132 127 124 120 118 112 114 114 114 113 113 113 115 116 116 116 115 112 108 106 101 99 97 99 97 99
288 292 290 283 284 283 289 301 303 314 316 311 314 305 289 300 310 305 309 310 116 126 128 132 129 125 122 118 113 113 114 115 115 115 115 117 117 116 117 115 110 105 102 100 99 98 99 98 101
292 291 283 280 281 282 288 293 301 309 321 321 325 318 303 291 291 294 294 316 75 123 128 130 130 126 122 118 116 114 114 118 119 118 117 116 116 117 117 115 111 105 100 98 97 97 99 98 102
291 293 292 282 275 282 292 296 292 298 313 320 314 325 317 326 301 293 301 350 63 109 120 125 131 126 122 119 118 118 117 118 120 121 118 116 116 117 117 116 112 105 100 96 94 95 97 96 100
297 289 278 277 276 279 284 291 292 293 295 302 311 300 311 316 319 313 311 329 350 91 108 124 127 122 117 120 121 122 122 122 124 122 121 118 118 118 118 116 111 106 99 94 90 92 92 93 100
290 290 278 273 279 282 286 292 294 293 292 294 296 297 305 324 328 327 324 321 328 237 208 210 245 204 139 124 120 122 124 125 126 126 125 121 119 119 119 115 109 103 98 95 90 89 88 92 97
287 285 278 280 281 284 290 293 300 296 291 289 294 289 297 308 322 330 329 320 308 280 241 231 251 249 238 183 140 128 127 128 129 130 128 124 121 119 118 114 105 98 92 87 85 83 84 88 90
294 293 287 284 283 284 291 295 296 298 294 293 294 288 287 300 313 318 324 311 296 278 265 230 255 253 252 251 215 162 138 132 131 133 132 127 123 121 117 114 104 94 89 84 79 76 82 82 83
297 290 287 288 287 287 292 292 296 297 293 293 292 289 291 299 302 305 311 308 290 276 264 260 252 254 254 256 248 211 197 158 140 139 139 132 126 126 120 119 108 100 92 81 72 69 71 75 75
294 290 291 293 290 286 286 289 291 293 291 289 288 289 289 291 294 294 296 300 287 271 262 263 256 250 252 256 253 251 240 241 185 155 151 146 138 134 128 121 112 101 94 74 67 69 59 63 63
297 291 294 294 295 293 290 288 291 288 286 288 287 285 287 286 287 288 288 289 288 278 264 260 260 255 251 253 253 253 253 252 251 217 175 166 153 146 139 124 121 114 102 70 63 57 60 49 53
295 298 297 297 297 296 291 291 287 285 285 288 288 286 284 283 283 284 284 285 284 279 270 260 255 256 253 254 251 252 251 251 252 252 238 241 226 211 184 154 130 111 74 61 52 44 40 39 42
302 302 302 301 300 297 295 291 288 287 289 289 289 287 285 284 282 283 283 282 282 279 273 266 260 255 251 250 253 251 250 250 252 252 252 252 255 255 262 266 256 240 26 39 29 26 27 24 31
307 305 303 304 302 303 299 296 297 294 296 293 290 288 288 285 284 283 281 279 280 280 274 271 263 256 249 250 249 250 249 252 251 251 252 253 257 260 259 264 268 273 295 330 348 353 5 7 9
311 304 308 307 309 306 304 294 291 294 296 292 288 288 287 285 284 282 281 279 279 279 276 271 265 258 252 250 250 249 247 248 250 251 251 250 255 260 261 260 262 270 282 299 315 326 335 344 351
310 310 304 306 307 308 304 290 296 297 296 291 288 287 286 283 283 281 281 280 280 278 277 271 265 259 255 254 250 250 250 246 247 250 252 250 253 256 259 261 263 268 274 283 296 305 314 325 334
315 304 305 308 310 308 303 293 296 295 293 290 288 286 285 283 282 280 280 278 278 278 277 272 264 260 255 255 251 249 249 250 249 247 250 252 252 255 256 259 262 265 270 275 282 290 304 313 321
308 308 308 306 309 307 301 295 299 300 294 290 289 286 284 282 280 281 280 278 274 275 275 275 265 261 257 256 254 253 251 250 249 249 247 250 252 252 253 257 259 261 266 270 273 279 292 305 316
313 310 307 309 312 306 305 299 299 306 300 295 291 288 284 282 283 282 281 278 274 270 271 272 268 261 256 252 251 252 250 250 249 249 248 246 250 250 251 254 255 257 262 264 265 271 280 295 307
315 312 310 314 318 314 311 301 306 308 306 302 297 293 290 288 286 284 283 279 274 269 268 268 270 264 256 253 253 254 253 254 252 250 248 248 249 251 252 252 255 254 259 261 260 262 273 287 283
316 314 314 312 318 321 320 309 312 315 311 315 306 298 295 293 291 294 291 283 275 269 265 267 267 266 261 256 254 254 254 255 253 251 249 248 248 248 249 250 253 253 255 257 258 261 266 275 277
314 323 321 317 318 318 329 309 316 320 327 323 321 310 310 304 302 304 306 292 283 275 271 266 265 265 262 258 256 251 250 251 253 255 252 249 248 249 249 250 252 253 251 252 260 264 268 268 271
324 328 312 311 311 311 322 317 320 319 311 314 320 313 314 316 309 313 319 311 302 291 284 271 265 264 263 260 256 254 252 255 255 255 254 248 247 247 249 251 252 250 254 254 255 260 263 265 271
335 317 301 312 320 319 327 321 323 320 322 322 317 316 309 311 311 311 312 313 310 306 296 288 271 263 264 261 259 255 254 254 254 254 254 250 247 247 248 250 251 251 250 245 251 258 258 263 274
333 314 318 322 323 321 327 319 317 316 313 312 308 305 305 305 309 308 304 305 301 303 301 296 284 272 265 262 260 259 257 255 254 253 253 250 246 247 248 247 247 248 244 250 253 255 258 261 269
329 326 323 317 318 301 315 322 329 332 326 321 313 313 315 310 306 305 305 303 299 294 297 298 292 280 274 264 262 262 259 258 256 254 252 250 248 247 250 243 243 244 244 246 247 256 260 263 266
341 328 334 323 326 321 330 328 327 332 324 324 321 321 318 312 307 302 299 300 299 296 293 291 288 285 282 274 266 263 261 257 256 255 251 250 247 245 239 239 237 241 245 249 246 254 254 256 265
329 333 330 338 329 320 327 324 325 330 326 324 315 310 309 305 300 298 297 294 291 291 290 289 284 279 281 280 273 267 262 259 256 255 252 247 245 239 235 236 235 240 242 247 247 242 241 246 259
333 330 335 336 336 329 323 330 337 327 322 318 316 310 308 303 296 294 290 290 285 285 284 284 281 277 275 277 276 272 265 261 255 254 251 247 244 241 239 232 234 242 239 244 248 245 237 233 245
330 330 329 331 332 326 321 297 327 336 333 326 320 313 305 300 298 293 285 283 282 280 278 278 277 276 274 272 276 275 268 260 257 252 249 248 243 239 250 240 242 244 236 238 238 253 222 227 260